Location: Mentone
(34.5413°N, 85.5351°W)
Time: 12:30:16
(UTC-05:00)

ATLAS 5 CENTAUR R/B - Visible Passes

Search period start: 30 October 2014 00:00
Search period end: 08 November 2014 23:00
Orbit: 714 x 949 km, 63.4° (Epoch: 19 October)

Date Brightness Start Highest point End Pass type
(mag) Time Alt. Az. Time Alt. Az. Time Alt. Az.
30 Oct 4.0 18:39:24 10° NW 18:45:01 39° WSW 18:50:45 10° S visible
31 Oct 3.9 18:20:45 10° NW 18:26:26 41° WSW 18:32:15 10° S visible
01 Nov 3.9 18:02:06 10° NW 18:07:51 44° WSW 18:13:44 10° S visible
04 Nov 4.5 05:27:44 10° SSE 05:31:54 26° ESE 05:36:14 10° NE visible
05 Nov 4.5 05:09:17 10° SSE 05:13:20 25° ESE 05:17:32 10° ENE visible
06 Nov 4.5 04:50:50 10° SSE 04:54:45 23° ESE 04:58:49 10° ENE visible
07 Nov 4.5 04:32:25 10° SSE 04:36:11 21° ESE 04:40:05 10° ENE visible
08 Nov 4.6 04:14:00 10° SSE 04:17:37 20° ESE 04:21:21 10° ENE visible
